| time (UTC) | temp F | wind direction | speed MPH | gust MPH | rain 1hr in | rain 24hr in | rain mn in | humidity % | barometer mb |
| 20260906224517 | 74 | 68 | 3.0 | 7.0 | 0.00 | 0.01 | 0.01 | 70 | 1021.8 |
| 20260906223517 | 74 | 68 | 3.0 | 8.0 | 0.00 | 0.01 | 0.01 | 72 | 1021.7 |
| 20260906222517 | 74 | 68 | 2.0 | 4.0 | 0.00 | 0.01 | 0.01 | 75 | 1021.9 |
| 20260906221517 | 74 | 68 | 1.0 | 5.0 | 0.00 | 0.01 | 0.01 | 73 | 1022.1 |
| 20260906220517 | 75 | 68 | 1.0 | 4.0 | 0.00 | 0.01 | 0.01 | 71 | 1022.2 |
| 20260906215517 | 75 | 90 | 1.0 | 3.0 | 0.00 | 0.01 | 0.01 | 73 | 1022.4 |
| 20260906214517 | 75 | 0.0 | 1.0 | 0.00 | 0.01 | 0.01 | 74 | 1022.4 | |
| 20260906213517 | 75 | 0.0 | 2.0 | 0.00 | 0.01 | 0.01 | 73 | 1022.3 | |
| 20260906212537 | 76 | 68 | 1.0 | 4.0 | 0.00 | 0.01 | 0.01 | 73 | 1022.4 |
| 20260906211538 | 76 | 68 | 2.0 | 5.0 | 0.00 | 0.01 | 0.01 | 71 | 1022.4 |
| 20260906210519 | 76 | 68 | 1.0 | 6.0 | 0.00 | 0.01 | 0.01 | 72 | 1022.4 |
| 20260906205517 | 77 | 90 | 2.0 | 5.0 | 0.00 | 0.01 | 0.01 | 71 | 1022.3 |
| 20260906204517 | 77 | 90 | 1.0 | 4.0 | 0.00 | 0.01 | 0.01 | 65 | 1022.5 |
| 20260906203517 | 77 | 90 | 1.0 | 6.0 | 0.00 | 0.01 | 0.01 | 70 | 1022.6 |
| 20260906202537 | 76 | 0.0 | 2.0 | 0.00 | 0.01 | 0.01 | 69 | 1022.4 | |
| 20260906201517 | 76 | 90 | 2.0 | 4.0 | 0.00 | 0.01 | 0.01 | 69 | 1022.3 |
| 20260906200518 | 77 | 0.0 | 1.0 | 0.00 | 0.01 | 0.01 | 63 | 1022.4 | |
| 20260906195517 | 77 | 90 | 2.0 | 5.0 | 0.00 | 0.01 | 0.01 | 64 | 1022.5 |
| 20260906194519 | 78 | 0.0 | 1.0 | 0.00 | 0.01 | 0.01 | 66 | 1022.7 | |
| 20260906193517 | 77 | 0.0 | 1.0 | 0.00 | 0.01 | 0.01 | 67 | 1022.7 | |
| 20260906192518 | 77 | 68 | 1.0 | 3.0 | 0.00 | 0.01 | 0.01 | 66 | 1022.8 |
| 20260906191518 | 77 | 0.0 | 0.0 | 0.00 | 0.01 | 0.01 | 66 | 1022.8 | |
| 20260906190517 | 75 | 0.0 | 1.0 | 0.00 | 0.01 | 0.01 | 74 | 1022.7 | |
| 20260906185517 | 75 | 45 | 1.0 | 3.0 | 0.00 | 0.01 | 0.01 | 65 | 1022.8 |
| 20260906184517 | 76 | 0.0 | 0.0 | 0.00 | 0.01 | 0.01 | 73 | 1022.8 | |
| 20260906183517 | 75 | 0.0 | 2.0 | 0.00 | 0.01 | 0.01 | 73 | 1022.8 | |
| 20260906182517 | 76 | 45 | 1.0 | 4.0 | 0.00 | 0.01 | 0.01 | 68 | 1023.0 |
| 20260906181517 | 76 | 0.0 | 1.0 | 0.00 | 0.01 | 0.01 | 69 | 1022.9 | |
| 20260906180517 | 76 | 0.0 | 0.0 | 0.00 | 0.01 | 0.01 | 69 | 1023.2 | |
| 20260906175516 | 75 | 0.0 | 1.0 | 0.00 | 0.01 | 0.01 | 71 | 1023.1 | |
| 20260906174518 | 75 | 90 | 4.0 | 8.0 | 0.00 | 0.01 | 0.01 | 70 | 1023.2 |
| 20260906173518 | 76 | 0.0 | 3.0 | 0.00 | 0.01 | 0.01 | 75 | 1023.3 | |
| 20260906172517 | 75 | 45 | 1.0 | 4.0 | 0.00 | 0.01 | 0.01 | 72 | 1023.3 |
| 20260906171517 | 75 | 0.0 | 4.0 | 0.00 | 0.01 | 0.01 | 73 | 1023.4 | |
| 20260906170517 | 74 | 68 | 1.0 | 3.0 | 0.00 | 0.01 | 0.01 | 77 | 1023.5 |
| 20260906165517 | 73 | 68 | 1.0 | 6.0 | 0.00 | 0.01 | 0.01 | 74 | 1023.5 |
| 20260906164537 | 74 | 23 | 1.0 | 7.0 | 0.00 | 0.01 | 0.01 | 74 | 1023.6 |
| 20260906163537 | 74 | 0.0 | 2.0 | 0.00 | 0.01 | 0.01 | 79 | 1023.6 | |
| 20260906162516 | 73 | 0.0 | 3.0 | 0.00 | 0.01 | 0.01 | 77 | 1023.7 | |
| 20260906161537 | 73 | 0.0 | 1.0 | 0.00 | 0.01 | 0.01 | 81 | 1023.7 | |
| 20260906160517 | 73 | 68 | 3.0 | 6.0 | 0.00 | 0.01 | 0.01 | 79 | 1023.9 |
| 20260906155517 | 72 | 45 | 2.0 | 5.0 | 0.00 | 0.01 | 0.01 | 82 | 1023.7 |
| 20260906154537 | 72 | 68 | 2.0 | 6.0 | 0.00 | 0.01 | 0.01 | 82 | 1023.6 |
| 20260906153517 | 72 | 68 | 2.0 | 5.0 | 0.00 | 0.01 | 0.01 | 85 | 1023.7 |
| 20260906152517 | 71 | 68 | 1.0 | 5.0 | 0.00 | 0.01 | 0.01 | 85 | 1023.6 |
| 20260906151516 | 71 | 68 | 2.0 | 5.0 | 0.00 | 0.01 | 0.01 | 86 | 1023.7 |
| 20260906150516 | 71 | 90 | 1.0 | 4.0 | 0.00 | 0.01 | 0.01 | 85 | 1023.9 |
| 20260906145537 | 71 | 90 | 2.0 | 5.0 | 0.00 | 0.01 | 0.01 | 86 | 1023.6 |
| 20260906144517 | 71 | 90 | 1.0 | 7.0 | 0.00 | 0.01 | 0.01 | 86 | 1023.5 |
| 20260906143517 | 70 | 90 | 2.0 | 5.0 | 0.00 | 0.01 | 0.01 | 86 | 1023.4 |
| 20260906142516 | 69 | 68 | 2.0 | 5.0 | 0.00 | 0.01 | 0.01 | 90 | 1023.4 |
| 20260906141517 | 69 | 90 | 3.0 | 6.0 | 0.00 | 0.01 | 0.01 | 90 | 1023.6 |
| 20260906140516 | 68 | 68 | 3.0 | 6.0 | 0.00 | 0.01 | 0.01 | 90 | 1023.5 |
| 20260906135517 | 68 | 68 | 2.0 | 5.0 | 0.00 | 0.01 | 0.01 | 93 | 1023.6 |
| 20260906134518 | 67 | 68 | 2.0 | 5.0 | 0.00 | 0.01 | 0.01 | 92 | 1023.7 |
| 20260906133516 | 66 | 45 | 2.0 | 4.0 | 0.00 | 0.01 | 0.01 | 93 | 1023.5 |
| 20260906132517 | 65 | 45 | 3.0 | 5.0 | 0.00 | 0.01 | 0.01 | 93 | 1023.4 |
| 20260906131516 | 65 | 45 | 2.0 | 4.0 | 0.00 | 0.01 | 0.01 | 94 | 1023.4 |
| 20260906130516 | 64 | 23 | 2.0 | 3.0 | 0.00 | 0.01 | 0.01 | 94 | 1023.3 |
| 20260906125516 | 63 | 45 | 2.0 | 3.0 | 0.00 | 0.01 | 0.01 | 95 | 1023.3 |
| 20260906124516 | 62 | 45 | 2.0 | 3.0 | 0.00 | 0.01 | 0.01 | 95 | 1023.1 |
| 20260906123536 | 62 | 45 | 2.0 | 4.0 | 0.00 | 0.01 | 0.01 | 95 | 1023.0 |
| 20260906122516 | 61 | 23 | 1.0 | 2.0 | 0.00 | 0.01 | 0.01 | 96 | 1023.0 |
| 20260906121516 | 60 | 23 | 2.0 | 4.0 | 0.00 | 0.01 | 0.01 | 97 | 1023.0 |
| 20260906120516 | 60 | 0 | 1.0 | 2.0 | 0.00 | 0.01 | 0.01 | 97 | 1023.0 |
| 20260906115517 | 59 | 0.0 | 1.0 | 0.00 | 0.01 | 0.01 | 97 | 1022.8 | |
| 20260906114516 | 59 | 0.0 | 2.0 | 0.01 | 0.01 | 0.01 | 98 | 1022.6 | |
| 20260906113516 | 59 | 0.0 | 1.0 | 0.01 | 0.01 | 0.01 | 98 | 1022.6 | |
| 20260906112516 | 59 | 23 | 1.0 | 2.0 | 0.01 | 0.01 | 0.01 | 98 | 1022.3 |
| 20260906111516 | 58 | 0.0 | 1.0 | 0.01 | 0.01 | 0.01 | 98 | 1022.1 | |
| 20260906110516 | 58 | 0.0 | 2.0 | 0.01 | 0.01 | 0.01 | 98 | 1021.9 | |
| 20260906105517 | 58 | 0.0 | 1.0 | 0.01 | 0.01 | 0.01 | 98 | 1022.0 | |
| 20260906104516 | 58 | 0.0 | 1.0 | 0.00 | 0.00 | 0.00 | 98 | 1022.1 | |
| 20260906103516 | 58 | 0.0 | 0.0 | 0.00 | 0.00 | 0.00 | 98 | 1022.1 | |
| 20260906102516 | 58 | 0.0 | 0.0 | 0.00 | 0.00 | 0.00 | 98 | 1022.0 | |
| 20260906101516 | 58 | 0.0 | 0.0 | 0.00 | 0.00 | 0.00 | 98 | 1022.0 | |
| 20260906100516 | 58 | 0.0 | 0.0 | 0.00 | 0.00 | 0.00 | 97 | 1022.2 | |
| 20260906095516 | 58 | 0.0 | 0.0 | 0.00 | 0.00 | 0.00 | 97 | 1022.1 | |
| 20260906094516 | 58 | 0.0 | 0.0 | 0.00 | 0.00 | 0.00 | 97 | 1022.1 | |
| 20260906093517 | 58 | 0.0 | 0.0 | 0.00 | 0.00 | 0.00 | 97 | 1022.0 | |
| 20260906092516 | 59 | 0.0 | 0.0 | 0.00 | 0.00 | 0.00 | 97 | 1021.8 | |
| 20260906091518 | 58 | 0.0 | 0.0 | 0.00 | 0.00 | 0.00 | 97 | 1021.7 | |
| 20260906090516 | 58 | 0.0 | 0.0 | 0.00 | 0.00 | 0.00 | 97 | 1021.8 | |
| 20260906085517 | 58 | 0.0 | 0.0 | 0.00 | 0.00 | 0.00 | 97 | 1021.8 | |
| 20260906084517 | 58 | 0.0 | 0.0 | 0.00 | 0.00 | 0.00 | 97 | 1021.9 | |
| 20260906083521 | 58 | 0.0 | 0.0 | 0.00 | 0.00 | 0.00 | 97 | 1021.8 | |
| 20260906082521 | 58 | 0.0 | 0.0 | 0.00 | 0.00 | 0.00 | 96 | 1021.6 | |
| 20260906081519 | 59 | 0.0 | 0.0 | 0.00 | 0.00 | 0.00 | 96 | 1021.7 | |
| 20260906080517 | 59 | 0.0 | 0.0 | 0.00 | 0.00 | 0.00 | 97 | 1021.6 | |
| 20260906075537 | 59 | 0.0 | 0.0 | 0.00 | 0.00 | 0.00 | 97 | 1021.4 | |
| 20260906074527 | 59 | 0.0 | 0.0 | 0.00 | 0.00 | 0.00 | 97 | 1021.7 | |
| 20260906073516 | 59 | 0.0 | 0.0 | 0.00 | 0.00 | 0.00 | 97 | 1021.8 | |
| 20260906072542 | 59 | 0.0 | 0.0 | 0.00 | 0.00 | 0.00 | 96 | 1021.8 | |
| 20260906071516 | 59 | 0.0 | 0.0 | 0.00 | 0.00 | 0.00 | 96 | 1021.7 | |
| 20260906070516 | 59 | 0.0 | 0.0 | 0.00 | 0.00 | 0.00 | 96 | 1021.6 | |
| 20260906065516 | 60 | 0.0 | 1.0 | 0.00 | 0.00 | 0.00 | 97 | 1021.6 | |
| 20260906064516 | 59 | 0.0 | 1.0 | 0.00 | 0.00 | 0.00 | 97 | 1021.5 | |
| 20260906063516 | 59 | 0.0 | 0.0 | 0.00 | 0.00 | 0.00 | 96 | 1021.5 | |
| 20260906062516 | 59 | 0.0 | 0.0 | 0.00 | 0.00 | 0.00 | 96 | 1021.5 | |
| 20260906061516 | 59 | 0.0 | 0.0 | 0.00 | 0.00 | 0.00 | 96 | 1021.5 | |
| 20260906060516 | 60 | 0.0 | 0.0 | 0.00 | 0.00 | 0.00 | 97 | 1021.3 | |
| 20260906055516 | 59 | 0.0 | 0.0 | 0.00 | 0.00 | 0.00 | 96 | 1021.1 | |
| 20260906054515 | 60 | 0.0 | 0.0 | 0.00 | 0.00 | 0.00 | 96 | 1021.1 | |
| 20260906053516 | 60 | 0.0 | 0.0 | 0.00 | 0.00 | 0.00 | 96 | 1021.1 | |
| 20260906052516 | 60 | 0.0 | 0.0 | 0.00 | 0.00 | 0.00 | 96 | 1020.8 | |
| 20260906051516 | 61 | 0.0 | 0.0 | 0.00 | 0.00 | 0.00 | 96 | 1020.6 | |
| 20260906050519 | 61 | 0.0 | 0.0 | 0.00 | 0.00 | 0.00 | 96 | 1020.6 | |
| 20260906045516 | 61 | 0.0 | 0.0 | 0.00 | 0.00 | 0.00 | 96 | 1020.6 | |
| 20260906044516 | 61 | 0.0 | 0.0 | 0.00 | 0.00 | 0.00 | 95 | 1020.4 | |
| 20260906043516 | 62 | 0.0 | 0.0 | 0.00 | 0.00 | 0.00 | 95 | 1020.6 | |
| 20260906042516 | 62 | 0.0 | 0.0 | 0.00 | 0.00 | 0.00 | 93 | 1020.5 | |
| 20260906041516 | 62 | 0.0 | 0.0 | 0.00 | 0.00 | 0.00 | 94 | 1020.5 | |
| 20260906040516 | 62 | 0.0 | 0.0 | 0.00 | 0.00 | 0.00 | 93 | 1020.4 | |
| 20260906035516 | 63 | 0.0 | 0.0 | 0.00 | 0.00 | 0.00 | 93 | 1020.5 | |
| 20260906034516 | 63 | 0.0 | 0.0 | 0.00 | 0.00 | 0.00 | 93 | 1020.4 | |
| 20260906033536 | 63 | 0.0 | 0.0 | 0.00 | 0.00 | 0.00 | 91 | 1020.3 | |
| 20260906032515 | 64 | 0.0 | 0.0 | 0.00 | 0.00 | 0.00 | 92 | 1020.4 | |
| 20260906031536 | 64 | 0.0 | 0.0 | 0.00 | 0.00 | 0.00 | 92 | 1020.4 | |
| 20260906030515 | 63 | 0.0 | 0.0 | 0.00 | 0.00 | 0.00 | 95 | 1020.2 | |
| 20260906025516 | 63 | 0.0 | 0.0 | 0.00 | 0.00 | 0.00 | 95 | 1020.1 | |
| 20260906024515 | 63 | 0.0 | 0.0 | 0.00 | 0.00 | 0.00 | 95 | 1020.0 | |
| 20260906023516 | 63 | 0.0 | 0.0 | 0.00 | 0.00 | 0.00 | 93 | 1020.1 | |
| 20260906022536 | 63 | 0.0 | 0.0 | 0.00 | 0.00 | 0.00 | 94 | 1020.0 | |
| 20260906021536 | 63 | 0.0 | 0.0 | 0.00 | 0.00 | 0.00 | 94 | 1020.0 | |
| 20260906020516 | 63 | 0.0 | 0.0 | 0.00 | 0.00 | 0.00 | 92 | 1020.1 | |
| 20260906015515 | 64 | 0.0 | 0.0 | 0.00 | 0.00 | 0.00 | 91 | 1020.0 | |
| 20260906014515 | 64 | 0.0 | 0.0 | 0.00 | 0.00 | 0.00 | 90 | 1020.0 | |
| 20260906013515 | 65 | 0.0 | 0.0 | 0.00 | 0.00 | 0.00 | 89 | 1019.9 | |
| 20260906012515 | 65 | 0.0 | 0.0 | 0.00 | 0.00 | 0.00 | 89 | 1019.9 | |
| 20260906011517 | 66 | 0.0 | 0.0 | 0.00 | 0.00 | 0.00 | 88 | 1019.8 | |
| 20260906010517 | 66 | 0.0 | 0.0 | 0.00 | 0.00 | 0.00 | 88 | 1019.9 | |
| 20260906005516 | 66 | 0.0 | 0.0 | 0.00 | 0.00 | 0.00 | 87 | 1019.8 | |
| 20260906004517 | 67 | 0.0 | 0.0 | 0.00 | 0.00 | 0.00 | 85 | 1019.8 | |
| 20260906003539 | 67 | 0.0 | 1.0 | 0.00 | 0.00 | 0.00 | 85 | 1019.6 | |
| 20260906002518 | 68 | 0.0 | 0.0 | 0.00 | 0.00 | 0.00 | 85 | 1019.8 | |
| 20260906001518 | 68 | 0.0 | 1.0 | 0.00 | 0.00 | 0.00 | 84 | 1019.6 | |
| 20260906000519 | 69 | 0.0 | 2.0 | 0.00 | 0.00 | 0.00 | 82 | 1019.6 | |
| 20260905235538 | 70 | 0.0 | 1.0 | 0.00 | 0.00 | 0.00 | 83 | 1019.7 | |
| 20260905234517 | 71 | 0.0 | 2.0 | 0.00 | 0.00 | 0.00 | 82 | 1019.7 | |
| 20260905233517 | 71 | 0.0 | 3.0 | 0.00 | 0.00 | 0.00 | 80 | 1019.8 | |
| 20260905232557 | 72 | 68 | 1.0 | 3.0 | 0.00 | 0.00 | 0.00 | 79 | 1019.8 |
| 20260905231517 | 72 | 45 | 1.0 | 5.0 | 0.00 | 0.00 | 0.00 | 77 | 1019.8 |
| 20260905230517 | 73 | 68 | 1.0 | 4.0 | 0.00 | 0.00 | 0.00 | 78 | 1019.9 |
| 20260905225517 | 73 | 45 | 2.0 | 6.0 | 0.00 | 0.00 | 0.00 | 77 | 1020.1 |